Overview Statistics Trail Chart Weather Telemetry Raw packets
 

This is the latest recevied weather packets stored in our database for station/object KN6WGU. If no packets are shown the sender has not sent any weather packets the latest 10 day(s).

<< 86 87 88 89 90 91 92 >>
Time Temp. Humidity Pressure Rain* Wind** Luminosity Snow
1787979583 15° C 84% 1015.5 hPa 0 mm - 0 W/m² -
1787979278 15° C 83% 1015.4 hPa 0 mm - 0 W/m² -
1787978977 15° C 84% 1015.6 hPa 0 mm - 0 W/m² -
1787978676 15° C 84% 1015.5 hPa 0 mm - 0 W/m² -
1787978372 15° C 84% 1015.5 hPa 0 mm - 0 W/m² -
1787978081 15° C 83% 1015.4 hPa 0 mm - 0 W/m² -
1787977766 15° C 83% 1015.9 hPa 0 mm - 0 W/m² -
1787977471 15° C 83% 1015.6 hPa 0 mm - 0 W/m² -
1787977156 15° C 83% 1015.6 hPa 0 mm - 0 W/m² -
1787976853 15° C 82% 1015.5 hPa 0 mm - 0 W/m² -
1787976551 15.56° C 82% 1015.5 hPa 0 mm - 0 W/m² -
1787976247 15.56° C 81% 1015.4 hPa 0 mm - 0 W/m² -
1787975946 15.56° C 80% 1015.4 hPa 0 mm - 0 W/m² -
1787975646 16.11° C 79% 1015.4 hPa 0 mm - 0 W/m² -
1787975339 16.67° C 79% 1015.4 hPa 0 mm - 0 W/m² -
1787975038 16.67° C 78% 1015.4 hPa 0 mm - 0 W/m² -
1787974732 16.67° C 77% 1015.4 hPa 0 mm - 0 W/m² -
1787974432 16.67° C 78% 1015.3 hPa 0 mm - 0 W/m² -
1787974131 17.22° C 77% 1015.4 hPa 0 mm - 0 W/m² -
1787973831 16.67° C 76% 1015.3 hPa 0 mm - 0 W/m² -
1787973526 16.11° C 79% 1015.1 hPa 0 mm - 0 W/m² -
1787973222 16.11° C 81% 1015.2 hPa 0 mm - 0 W/m² -
1787972920 16.11° C 84% 1015.4 hPa 0 mm - 0 W/m² -
1787972616 16.11° C 83% 1015.2 hPa 0 mm - 0 W/m² -
1787972314 16.11° C 83% 1015 hPa 0 mm - 0 W/m² -

* Rain latest hour (hover to see other rain measurements)
** Current wind speed in m/s (hover to see current wind gust speed)